Time,TemperatureF,DewpointF,PressureIn,WindDirection,WindDirectionDegrees,WindSpeedMPH,WindSpeedGustMPH,Humidity,HourlyPrecipIn,Conditions,Clouds,dailyrainin,SoftwareType,DateUTC
2013-01-03 00:11:00,69.4,67.6,29.92,SW,225,2.2,-999.0,94,-99.99,,,0.00,Acu-Link.com,2013-01-03 05:11:00,
2013-01-03 00:32:00,68.7,67.2,29.91,SW,225,1.7,-999.0,95,-99.99,,,0.00,Acu-Link.com,2013-01-03 05:32:00,
2013-01-03 01:02:00,67.3,67.0,29.91,SW,225,1.7,-999.0,99,-99.99,,,0.00,Acu-Link.com,2013-01-03 06:02:00,
2013-01-03 01:21:00,67.1,66.8,29.91,SW,225,1.7,-999.0,99,-99.99,,,0.00,Acu-Link.com,2013-01-03 06:21:00,
2013-01-03 01:36:00,66.9,66.6,29.91,SW,225,0.0,-999.0,99,-99.99,,,0.00,Acu-Link.com,2013-01-03 06:36:00,
2013-01-03 01:58:00,66.9,66.6,29.91,SW,225,0.0,-999.0,99,-99.99,,,0.00,Acu-Link.com,2013-01-03 06:58:00,
2013-01-03 02:13:00,66.9,66.6,29.91,SW,225,0.0,-999.0,99,-99.99,,,0.00,Acu-Link.com,2013-01-03 07:13:00,
2013-01-03 02:28:00,67.1,66.8,29.90,SW,225,0.0,-999.0,99,-99.99,,,0.00,Acu-Link.com,2013-01-03 07:28:00,
2013-01-03 02:43:00,67.3,67.0,29.90,SW,225,0.0,-999.0,99,-99.99,,,0.00,Acu-Link.com,2013-01-03 07:43:00,
2013-01-03 02:58:00,67.1,66.8,29.91,SW,225,0.0,-999.0,99,-99.99,,,0.00,Acu-Link.com,2013-01-03 07:58:00,
2013-01-03 03:13:00,67.6,67.0,29.90,SW,225,2.2,-999.0,98,-99.99,,,0.00,Acu-Link.com,2013-01-03 08:13:00,
2013-01-03 03:29:00,67.5,66.9,29.90,SW,225,1.1,-999.0,98,-99.99,,,0.00,Acu-Link.com,2013-01-03 08:29:00,
2013-01-03 03:44:00,67.6,66.7,29.90,WNW,292,3.7,-999.0,97,-99.99,,,0.00,Acu-Link.com,2013-01-03 08:44:00,
2013-01-03 03:59:00,67.5,66.6,29.90,NW,315,2.2,-999.0,97,-99.99,,,0.00,Acu-Link.com,2013-01-03 08:59:00,
2013-01-03 04:14:00,67.5,66.6,29.90,West,270,2.2,-999.0,97,-99.99,,,0.00,Acu-Link.com,2013-01-03 09:14:00,
2013-01-03 04:29:00,66.9,66.0,29.90,West,270,0.0,-999.0,97,-99.99,,,0.00,Acu-Link.com,2013-01-03 09:29:00,
2013-01-03 04:44:00,66.6,66.0,29.90,West,270,1.7,-999.0,98,-99.99,,,0.00,Acu-Link.com,2013-01-03 09:44:00,
2013-01-03 04:59:00,66.2,65.9,29.90,West,270,2.7,-999.0,99,-99.99,,,0.00,Acu-Link.com,2013-01-03 09:59:00,
2013-01-03 05:16:00,66.2,65.9,29.90,West,270,3.7,-999.0,99,-99.99,,,0.00,Acu-Link.com,2013-01-03 10:16:00,
2013-01-03 05:31:00,66.0,65.7,29.91,West,270,2.7,-999.0,99,-99.99,,,0.00,Acu-Link.com,2013-01-03 10:31:00,
2013-01-03 05:46:00,66.2,65.9,29.91,WNW,292,4.7,-999.0,99,-99.99,,,0.00,Acu-Link.com,2013-01-03 10:46:00,
2013-01-03 06:01:00,66.9,65.7,29.91,WNW,292,4.2,-999.0,96,-99.99,,,0.00,Acu-Link.com,2013-01-03 11:01:00,
2013-01-03 06:16:00,66.9,65.4,29.92,ESE,112,3.7,-999.0,95,-99.99,,,0.00,Acu-Link.com,2013-01-03 11:16:00,
2013-01-03 06:31:00,66.7,65.2,29.93,ESE,112,3.2,-999.0,95,-99.99,,,0.00,Acu-Link.com,2013-01-03 11:31:00,
2013-01-03 06:46:00,66.6,65.4,29.93,ESE,112,0.0,-999.0,96,-99.99,,,0.00,Acu-Link.com,2013-01-03 11:46:00,
2013-01-03 07:01:00,66.2,65.3,29.94,ESE,112,0.0,-999.0,97,-99.99,,,0.00,Acu-Link.com,2013-01-03 12:01:00,
2013-01-03 07:16:00,66.0,65.1,29.94,ESE,112,0.0,-999.0,97,-99.99,,,0.00,Acu-Link.com,2013-01-03 12:16:00,
2013-01-03 07:32:00,66.6,65.7,29.94,ESE,112,1.7,-999.0,97,-99.99,,,0.00,Acu-Link.com,2013-01-03 12:32:00,
2013-01-03 07:47:00,67.1,65.9,29.95,South,180,0.0,-999.0,96,-99.99,,,0.00,Acu-Link.com,2013-01-03 12:47:00,
2013-01-03 08:03:00,68.0,66.2,29.95,NNE,22,0.0,-999.0,94,-99.99,,,0.00,Acu-Link.com,2013-01-03 13:03:00,
2013-01-03 08:18:00,69.3,67.2,29.95,ESE,112,0.0,-999.0,93,-99.99,,,0.00,Acu-Link.com,2013-01-03 13:18:00,
2013-01-03 08:34:00,70.2,66.5,29.95,ESE,112,2.7,-999.0,88,-99.99,,,0.00,Acu-Link.com,2013-01-03 13:34:00,
2013-01-03 08:50:00,70.7,67.0,29.95,ESE,112,3.7,-999.0,88,-99.99,,,0.00,Acu-Link.com,2013-01-03 13:50:00,
2013-01-03 09:05:00,72.9,67.4,29.95,ESE,112,1.7,-999.0,83,-99.99,,,0.00,Acu-Link.com,2013-01-03 14:05:00,
2013-01-03 09:21:00,75.2,66.7,29.96,SE,135,0.0,-999.0,75,-99.99,,,0.00,Acu-Link.com,2013-01-03 14:21:00,
2013-01-03 09:36:00,75.9,66.2,29.96,ESE,112,3.7,-999.0,72,-99.99,,,0.00,Acu-Link.com,2013-01-03 14:36:00,
2013-01-03 09:51:00,77.2,66.6,29.96,SSW,202,4.2,-999.0,70,-99.99,,,0.00,Acu-Link.com,2013-01-03 14:51:00,
2013-01-03 10:06:00,77.2,67.1,29.96,SW,225,3.2,-999.0,71,-99.99,,,0.00,Acu-Link.com,2013-01-03 15:06:00,
2013-01-03 10:21:00,78.4,67.4,29.97,SSE,157,3.7,-999.0,69,-99.99,,,0.00,Acu-Link.com,2013-01-03 15:21:00,
2013-01-03 10:37:00,79.5,68.0,29.96,South,180,4.7,-999.0,68,-99.99,,,0.00,Acu-Link.com,2013-01-03 15:37:00,
2013-01-03 10:52:00,79.3,67.8,29.96,SW,225,4.7,-999.0,68,-99.99,,,0.00,Acu-Link.com,2013-01-03 15:52:00,
2013-01-03 11:07:00,79.5,67.6,29.96,South,180,3.7,-999.0,67,-99.99,,,0.00,Acu-Link.com,2013-01-03 16:07:00,
2013-01-03 11:22:00,80.1,67.3,29.96,SW,225,1.7,-999.0,65,-99.99,,,0.00,Acu-Link.com,2013-01-03 16:22:00,
2013-01-03 11:37:00,80.6,66.8,29.94,South,180,6.3,-999.0,63,-99.99,,,0.00,Acu-Link.com,2013-01-03 16:37:00,
2013-01-03 11:53:00,81.1,66.8,29.94,SSE,157,6.8,-999.0,62,-99.99,,,0.00,Acu-Link.com,2013-01-03 16:53:00,
2013-01-03 12:09:00,79.9,67.1,29.93,SSW,202,5.3,-999.0,65,-99.99,,,0.00,Acu-Link.com,2013-01-03 17:09:00,
2013-01-03 12:24:00,80.8,67.5,29.93,WSW,247,4.2,-999.0,64,-99.99,,,0.00,Acu-Link.com,2013-01-03 17:24:00,
2013-01-03 12:40:00,79.9,66.6,29.92,SE,135,1.7,-999.0,64,-99.99,,,0.00,Acu-Link.com,2013-01-03 17:40:00,
2013-01-03 12:55:00,78.8,68.2,29.91,NNW,337,1.7,-999.0,70,-99.99,,,0.00,Acu-Link.com,2013-01-03 17:55:00,
2013-01-03 13:10:00,78.6,68.0,29.90,SSE,157,5.8,-999.0,70,-99.99,,,0.00,Acu-Link.com,2013-01-03 18:10:00,
2013-01-03 13:25:00,80.1,68.1,29.89,NE,45,2.2,-999.0,67,-99.99,,,0.00,Acu-Link.com,2013-01-03 18:25:00,
2013-01-03 13:40:00,79.5,67.6,29.89,ESE,112,3.7,-999.0,67,-99.99,,,0.00,Acu-Link.com,2013-01-03 18:40:00,
2013-01-03 13:55:00,80.1,67.3,29.89,South,180,4.2,-999.0,65,-99.99,,,0.00,Acu-Link.com,2013-01-03 18:55:00,
2013-01-03 14:11:00,80.4,67.1,29.89,South,180,7.8,-999.0,64,-99.99,,,0.00,Acu-Link.com,2013-01-03 19:11:00,
2013-01-03 14:56:00,79.7,66.9,29.88,ESE,112,5.3,-999.0,65,-99.99,,,0.00,Acu-Link.com,2013-01-03 19:56:00,
2013-01-03 15:11:00,78.6,66.7,29.89,SSE,157,6.3,-999.0,67,-99.99,,,0.00,Acu-Link.com,2013-01-03 20:11:00,
2013-01-03 15:26:00,80.8,67.9,29.89,SSE,157,6.3,-999.0,65,-99.99,,,0.00,Acu-Link.com,2013-01-03 20:26:00,
2013-01-03 15:41:00,80.6,67.3,29.89,ESE,112,4.7,-999.0,64,-99.99,,,0.00,Acu-Link.com,2013-01-03 20:41:00,
2013-01-03 15:57:00,80.1,66.8,29.89,SSE,157,8.3,-999.0,64,-99.99,,,0.00,Acu-Link.com,2013-01-03 20:57:00,
2013-01-03 16:12:00,80.4,66.6,29.90,SE,135,1.7,-999.0,63,-99.99,,,0.00,Acu-Link.com,2013-01-03 21:12:00,
2013-01-03 16:27:00,78.6,65.4,29.90,SSW,202,4.2,-999.0,64,-99.99,,,0.00,Acu-Link.com,2013-01-03 21:27:00,
2013-01-03 16:58:00,78.3,66.0,29.91,ESE,112,3.2,-999.0,66,-99.99,,,0.00,Acu-Link.com,2013-01-03 21:58:00,
2013-01-03 17:13:00,77.5,66.1,29.90,ESE,112,2.7,-999.0,68,-99.99,,,0.00,Acu-Link.com,2013-01-03 22:13:00,
2013-01-03 17:28:00,77.2,67.1,29.91,ESE,112,2.2,-999.0,71,-99.99,,,0.00,Acu-Link.com,2013-01-03 22:28:00,
2013-01-03 17:43:00,75.9,66.6,29.91,ESE,112,2.7,-999.0,73,-99.99,,,0.00,Acu-Link.com,2013-01-03 22:43:00,
2013-01-03 17:58:00,75.4,66.5,29.92,ESE,112,2.7,-999.0,74,-99.99,,,0.00,Acu-Link.com,2013-01-03 22:58:00,
2013-01-03 18:13:00,75.0,66.5,29.92,ESE,112,2.7,-999.0,75,-99.99,,,0.00,Acu-Link.com,2013-01-03 23:13:00,
2013-01-03 18:28:00,74.8,66.3,29.92,ESE,112,2.7,-999.0,75,-99.99,,,0.00,Acu-Link.com,2013-01-03 23:28:00,
2013-01-03 18:43:00,74.5,66.8,29.93,SSE,157,4.7,-999.0,77,-99.99,,,0.00,Acu-Link.com,2013-01-03 23:43:00,
2013-01-03 18:59:00,73.9,67.3,29.94,South,180,3.7,-999.0,80,-99.99,,,0.00,Acu-Link.com,2013-01-03 23:59:00,
2013-01-03 19:14:00,73.6,67.8,29.94,SSE,157,2.7,-999.0,82,-99.99,,,0.00,Acu-Link.com,2013-01-04 00:14:00,
2013-01-03 19:29:00,73.6,67.8,29.96,SSE,157,4.2,-999.0,82,-99.99,,,0.00,Acu-Link.com,2013-01-04 00:29:00,
2013-01-03 19:44:00,73.4,67.9,29.96,SSE,157,3.2,-999.0,83,-99.99,,,0.00,Acu-Link.com,2013-01-04 00:44:00,
2013-01-03 19:59:00,73.2,68.1,29.96,SSW,202,2.2,-999.0,84,-99.99,,,0.00,Acu-Link.com,2013-01-04 00:59:00,
2013-01-03 20:14:00,72.9,68.1,29.97,South,180,3.7,-999.0,85,-99.99,,,0.00,Acu-Link.com,2013-01-04 01:14:00,
2013-01-03 20:29:00,73.0,68.2,29.97,SSE,157,4.2,-999.0,85,-99.99,,,0.00,Acu-Link.com,2013-01-04 01:29:00,
2013-01-03 20:44:00,72.9,68.5,29.97,South,180,3.7,-999.0,86,-99.99,,,0.00,Acu-Link.com,2013-01-04 01:44:00,
2013-01-03 20:59:00,72.5,68.4,29.98,SSW,202,2.7,-999.0,87,-99.99,,,0.00,Acu-Link.com,2013-01-04 01:59:00,
2013-01-03 21:15:00,72.5,68.4,29.97,SSE,157,3.7,-999.0,87,-99.99,,,0.00,Acu-Link.com,2013-01-04 02:15:00,
2013-01-03 21:30:00,72.0,68.2,29.96,SSW,202,4.2,-999.0,88,-99.99,,,0.00,Acu-Link.com,2013-01-04 02:30:00,
2013-01-03 21:45:00,71.6,67.9,29.97,South,180,4.7,-999.0,88,-99.99,,,0.00,Acu-Link.com,2013-01-04 02:45:00,
2013-01-03 22:00:00,71.2,67.8,29.98,South,180,2.2,-999.0,89,-99.99,,,0.00,Acu-Link.com,2013-01-04 03:00:00,
2013-01-03 22:15:00,70.5,67.7,29.99,South,180,0.0,-999.0,91,-99.99,,,0.00,Acu-Link.com,2013-01-04 03:15:00,
2013-01-03 22:30:00,70.3,67.9,29.99,South,180,0.0,-999.0,92,-99.99,,,0.00,Acu-Link.com,2013-01-04 03:30:00,
2013-01-03 22:45:00,70.2,68.1,30.00,South,180,0.0,-999.0,93,-99.99,,,0.00,Acu-Link.com,2013-01-04 03:45:00,
2013-01-03 23:01:00,70.2,68.1,29.99,South,180,2.2,-999.0,93,-99.99,,,0.00,Acu-Link.com,2013-01-04 04:01:00,
2013-01-03 23:16:00,70.2,68.1,29.99,South,180,2.7,-999.0,93,-99.99,,,0.00,Acu-Link.com,2013-01-04 04:16:00,
2013-01-03 23:31:00,69.6,68.1,29.98,South,180,2.2,-999.0,95,-99.99,,,0.00,Acu-Link.com,2013-01-04 04:31:00,
2013-01-03 23:46:00,69.3,67.8,29.98,South,180,2.2,-999.0,95,-99.99,,,0.00,Acu-Link.com,2013-01-04 04:46:00,